CAPE
0 0 0 0 0 0 0 0 0 0 0 0 0 0 0 0 0 0 0 0 0 278 1025 18 0 65 356 302 859 963 378 155 0 0 0 0 0 20 228 572 465 348 706 614 951
0 0 0 0 0 0 0 0 0 0 0 0 0 0 0 0 0 0 0 0 12 523 5 0 0 0 116 33 332 483 440 28 0 0 0 0 0 41 445 618 844 751 783 771 826
0 0 0 0 0 0 0 0 0 0 0 0 0 0 0 0 0 0 0 0 116 7 0 0 0 0 0 0 133 333 16 20 0 0 0 0 0 35 315 651 766 978 1087 787 906
0 0 0 0 0 0 0 0 0 0 0 0 0 0 0 0 0 0 234 526 84 0 0 0 0 0 0 0 0 0 0 0 0 0 0 0 0 0 251 154 509 949 1162 891 904
0 0 0 0 0 0 0 0 0 0 0 0 0 0 0 0 0 0 625 535 41 0 0 0 0 0 0 0 0 0 0 0 0 0 0 0 0 0 109 197 553 1038 1075 1026 921
0 0 0 0 0 0 0 0 0 0 0 0 0 0 0 0 0 0 0 0 0 0 0 0 0 0 0 0 0 0 0 0 0 0 0 0 0 0 1 360 843 1011 1113 1092 995
0 0 0 0 0 0 0 0 0 0 0 0 0 0 0 0 0 0 0 0 0 0 0 0 0 0 0 0 0 0 0 0 0 0 0 0 0 0 0 436 887 910 1117 1106 1091
1 1 0 0 0 0 0 0 0 0 0 0 0 0 0 0 0 0 0 0 0 0 0 0 0 0 0 0 0 0 0 0 0 0 0 0 0 0 0 67 503 1054 966 980 1106
0 0 0 0 0 0 0 0 0 0 0 0 0 0 0 0 0 0 0 0 0 0 0 0 0 0 0 0 0 0 0 0 0 0 0 0 0 0 0 0 0 1047 1244 1099 1124
0 0 0 0 0 0 0 0 0 0 0 0 0 0 0 0 0 0 0 0 0 0 0 0 0 0 0 0 0 0 0 0 0 0 0 0 0 0 0 0 0 722 1219 1341 1268
1 1 0 1 0 0 0 0 0 0 0 0 0 0 0 0 0 0 0 0 0 0 0 0 0 0 0 0 0 0 0 0 0 0 0 0 0 0 0 0 35 864 1143 1252 1328
1 1 0 0 0 0 0 0 0 0 0 0 0 0 0 0 0 0 0 0 0 0 0 0 0 0 0 0 0 0 0 0 0 0 0 0 0 0 0 0 0 558 1248 1332 1363
0 1 1 1 0 0 0 0 0 0 0 0 0 0 0 0 0 0 0 0 0 0 0 0 0 0 0 0 0 0 0 0 0 0 0 0 0 0 0 0 0 586 1074 1390 1539
0 1 0 0 0 0 0 0 0 0 0 0 0 0 0 0 0 0 0 0 0 0 0 0 0 0 0 0 0 0 0 0 0 0 0 0 0 0 0 0 0 0 878 1288 1445
0 0 0 0 0 0 0 0 0 0 0 0 0 0 0 0 0 0 0 0 0 0 0 0 0 0 0 0 0 0 0 0 0 0 0 0 0 0 0 0 0 0 1 930 1294
0 0 1 0 0 0 0 0 0 0 0 0 0 0 0 0 0 0 0 0 0 0 0 0 0 0 0 0 0 0 0 0 0 0 0 0 0 0 0 0 0 0 0 3 891
0 0 0 0 0 0 0 0 0 0 0 0 0 0 0 0 0 0 0 0 0 0 0 0 0 0 0 0 0 0 0 0 0 0 0 0 0 0 0 0 0 0 0 0 0
0 0 0 0 0 0 0 0 0 0 0 0 0 0 0 0 0 0 0 0 0 0 0 0 0 0 0 0 0 0 0 0 0 0 0 0 0 0 0 0 0 0 61 344 435
0 0 0 0 0 0 0 0 0 0 0 0 0 0 0 0 0 0 0 0 0 0 0 0 0 0 0 0 0 0 0 0 1 0 0 0 0 0 0 0 273 986 1278 1648 1321
0 0 0 0 0 0 0 0 0 0 0 0 0 0 0 0 0 0 0 0 0 0 0 0 0 0 1 0 0 0 0 9 11 25 5 0 0 0 19 213 910 1061 1541 2661 2560
0 0 0 0 0 0 0 0 0 0 0 0 0 0 0 0 0 0 0 0 0 0 2 0 0 14 54 124 116 26 28 9 29 55 25 10 5 25 219 1071 1123 1417 2149 3095 2717
0 0 0 0 0 0 0 0 0 0 0 0 0 0 0 0 0 0 0 0 0 0 17 0 1 21 74 89 24 40 164 127 115 123 35 45 1 834 880 929 1304 1711 1601 2182 2898
0 0 0 0 0 0 0 0 0 0 0 0 0 0 0 0 0 0 0 0 0 0 13 20 8 8 95 193 212 329 332 790 441 59 121 59 2 854 956 1458 1446 1859 1834 1906 1854
0 0 0 0 0 0 0 0 0 0 0 0 0 0 0 0 0 0 0 0 0 0 317 0 0 77 37 144 122 212 325 1004 666 308 117 33 68 908 1098 1295 1280 1232 1447 1594 1279
0 0 0 0 0 0 0 0 0 0 0 0 0 0 0 0 0 0 0 0 0 3 0 0 54 0 10 98 118 160 399 778 690 1027 595 263 120 1000 864 1327 1124 933 897 999 930
0 0 0 0 0 0 0 0 0 0 0 0 0 0 0 0 0 0 0 0 0 0 0 0 34 45 109 46 90 224 381 365 456 551 717 1122 933 984 764 1030 1115 1159 1060 858 733
0 0 0 0 0 0 0 0 0 0 0 0 0 0 0 0 0 0 0 0 0 0 0 0 3 69 72 57 41 172 991 937 230 277 719 711 954 1106 1082 924 727 669 769 626 499
CIN
0 0 0 0 0 0 0 0 0 0 0 0 0 0 0 0 0 0 0 0 0 -790 -450 -587 0 -590 -431 -367 -240 -218 -121 -104 0 0 0 0 0 -242 -224 -187 -179 -234 -159 -222 -323
0 0 0 0 0 0 0 0 0 0 0 0 0 0 0 0 0 0 0 0 -564 -608 -301 0 0 0 -396 -420 -278 -185 -135 -122 0 0 0 0 0 -176 -138 -150 -178 -257 -329 -388 -390
0 0 0 0 0 0 0 0 0 0 0 0 0 0 0 0 0 0 0 0 -771 -232 0 0 0 0 0 0 -298 -178 -120 -129 0 0 0 0 0 -133 -107 -127 -111 -138 -311 -393 -373
0 0 0 0 0 0 0 0 0 0 0 0 0 0 0 0 0 0 -703 -701 -748 0 0 0 0 0 0 0 0 0 0 0 0 0 0 0 0 0 -134 -97 -131 -153 -325 -392 -379
0 0 0 0 0 0 0 0 0 0 0 0 0 0 0 0 0 0 -619 -668 -724 0 0 0 0 0 0 0 0 0 0 0 0 0 0 0 0 0 -166 -127 -223 -319 -378 -376 -354
0 0 0 0 0 0 0 0 0 0 0 0 0 0 0 0 0 0 0 0 0 0 0 0 0 0 0 0 0 0 0 0 0 0 0 0 0 0 -14 -173 -288 -379 -352 -329 -368
0 0 0 0 0 0 0 0 0 0 0 0 0 0 0 0 0 0 0 0 0 0 0 0 0 0 0 0 0 0 0 0 0 0 0 0 0 0 0 -203 -241 -353 -359 -334 -366
0 0 0 0 0 0 0 0 0 0 0 0 0 0 0 0 0 0 0 0 0 0 0 0 0 0 0 0 0 0 0 0 0 0 0 0 0 0 0 -259 -216 -320 -396 -396 -392
0 0 0 0 0 0 0 0 0 0 0 0 0 0 0 0 0 0 0 0 0 0 0 0 0 0 0 0 0 0 0 0 0 0 0 0 0 0 0 0 0 -284 -348 -370 -345
0 0 0 0 0 0 0 0 0 0 0 0 0 0 0 0 0 0 0 0 0 0 0 0 0 0 0 0 0 0 0 0 0 0 0 0 0 0 0 0 0 -217 -328 -356 -335
0 0 0 0 0 0 0 0 0 0 0 0 0 0 0 0 0 0 0 0 0 0 0 0 0 0 0 0 0 0 0 0 0 0 0 0 0 0 0 0 -181 -215 -302 -331 -326
0 0 0 0 0 0 0 0 0 0 0 0 0 0 0 0 0 0 0 0 0 0 0 0 0 0 0 0 0 0 0 0 0 0 0 0 0 0 0 0 0 -171 -240 -269 -295
0 0 0 0 0 0 0 0 0 0 0 0 0 0 0 0 0 0 0 0 0 0 0 0 0 0 0 0 0 0 0 0 0 0 0 0 0 0 0 0 0 -192 -211 -232 -257
0 0 0 0 0 0 0 0 0 0 0 0 0 0 0 0 0 0 0 0 0 0 0 0 0 0 0 0 0 0 0 0 0 0 0 0 0 0 0 0 0 0 -169 -189 -237
0 0 0 0 0 0 0 0 0 0 0 0 0 0 0 0 0 0 0 0 0 0 0 0 0 0 0 0 0 0 0 0 0 0 0 0 0 0 0 0 0 0 -63 -136 -167
0 0 0 0 0 0 0 0 0 0 0 0 0 0 0 0 0 0 0 0 0 0 0 0 0 0 0 0 0 0 0 0 0 0 0 0 0 0 0 0 0 0 0 -70 -155
0 0 0 0 0 0 0 0 0 0 0 0 0 0 0 0 0 0 0 0 0 0 0 0 0 0 0 0 0 0 0 0 0 0 0 0 0 0 0 0 0 0 0 0 0
0 0 0 0 0 0 0 0 0 0 0 0 0 0 0 0 0 0 0 0 0 0 0 0 0 0 0 0 0 0 0 0 0 0 0 0 0 0 0 0 0 0 -242 -234 -222
0 0 0 0 0 0 0 0 0 0 0 0 0 0 0 0 0 0 0 0 0 0 0 0 0 0 0 0 0 0 0 0 -12 0 0 0 0 0 0 0 -196 -219 -252 -226 -269
0 0 0 0 0 0 0 0 0 0 0 0 0 0 0 0 0 0 0 0 0 0 0 0 0 0 -34 0 0 0 0 -36 -47 -9 -19 0 0 0 -42 -189 -224 -247 -258 -194 -192
0 0 0 0 0 0 0 0 0 0 0 0 0 0 0 0 0 0 0 0 0 0 -97 0 0 -35 -78 -22 -21 -29 -36 -48 -26 -17 -5 -31 -59 -147 -214 -247 -278 -276 -228 -121 -175
0 0 0 0 0 0 0 0 0 0 0 0 0 0 0 0 0 0 0 0 0 0 -92 -5 -43 -40 -36 -82 -167 -114 -39 -47 -3 -38 -59 -46 -58 -285 -296 -308 -303 -249 -292 -217 -129
0 0 0 0 0 0 0 0 0 0 0 0 0 0 0 0 0 0 0 0 0 0 -60 -76 -18 -17 -14 -26 -59 -59 -60 -43 -110 -159 -23 -23 -7 -303 -283 -186 -233 -156 -161 -182 -182
0 0 0 0 0 0 0 0 0 0 0 0 0 0 0 0 0 0 0 0 0 0 -87 0 0 -20 -30 -34 -81 -77 -69 -66 -43 -38 -19 -55 -53 -233 -234 -204 -185 -228 -194 -166 -193
0 0 0 0 0 0 0 0 0 0 0 0 0 0 0 0 0 0 0 0 0 -19 0 0 -20 0 -105 -92 -97 -101 -39 -58 -33 -44 -38 -52 -41 -168 -220 -122 -184 -268 -316 -232 -191
0 0 0 0 0 0 0 0 0 0 0 0 0 0 0 0 0 0 0 0 0 0 0 0 -63 -55 -34 -50 -61 -52 -57 -77 -98 -130 -56 -7 -54 -78 -178 -125 -134 -159 -200 -190 -219
0 0 0 0 0 0 0 0 0 0 0 0 0 0 0 0 0 0 0 0 0 0 0 0 -34 -31 -19 -45 -45 -7 -55 -80 -235 -196 -82 -37 -28 -42 -80 -88 -171 -244 -229 -216 -281
Wind_Speed
19 19 19 19 20 20 21 20 19 19 19 18 17 17 16 14 7 5 7 4 6 15 19 13 8 11 11 6 6 2 4 4 2 3 9 8 7 1 2 11 6 10 3 5 19
19 19 19 19 19 19 20 20 20 20 19 19 18 16 14 15 4 7 6 6 17 19 15 17 11 12 5 4 5 6 4 4 3 5 6 12 8 5 7 9 8 8 5 16 21
19 19 20 21 21 20 20 20 20 21 20 19 18 17 14 11 5 2 3 12 18 5 8 9 11 8 5 4 7 6 7 8 7 10 6 8 10 6 7 10 14 17 16 19 21
20 21 22 23 23 22 22 21 21 21 20 19 17 15 15 2 5 3 2 13 22 11 12 7 10 6 5 7 8 8 12 11 5 4 4 6 5 6 12 16 2 10 21 23 20
21 21 22 23 24 24 24 24 22 20 20 18 15 12 4 1 8 4 5 8 11 5 8 9 9 5 7 4 6 13 13 8 11 6 8 9 11 8 11 13 4 16 19 23 21
21 21 22 23 24 24 25 25 24 22 19 16 11 6 3 7 2 7 8 11 7 7 5 8 7 7 6 6 6 5 11 13 11 9 9 10 10 4 5 4 10 18 20 21 22
20 21 22 24 25 26 26 26 23 22 19 10 5 4 4 13 6 5 3 3 5 7 7 7 2 6 1 4 3 5 9 13 13 12 10 8 7 10 2 6 10 15 17 19 21
19 20 21 23 25 28 29 25 22 20 11 2 8 3 6 3 2 4 3 4 6 11 11 5 5 4 5 3 2 5 3 10 6 4 4 4 16 11 2 3 11 14 15 18 20
19 22 24 26 27 29 31 29 22 5 3 9 2 1 6 2 2 2 3 5 6 1 4 3 6 4 5 8 6 5 11 8 8 3 3 4 13 5 7 11 14 14 16 17 16
20 22 24 25 27 29 32 25 6 2 4 4 3 4 3 4 5 7 9 7 3 1 4 6 5 6 5 8 10 9 5 4 5 5 12 17 15 16 14 15 15 13 15 18 20
20 21 23 25 27 28 17 3 5 1 5 3 5 5 9 10 8 5 3 4 2 2 6 7 8 12 17 18 14 6 7 8 9 10 9 9 14 20 16 11 12 12 15 18 20
20 21 24 26 27 27 5 6 5 3 8 2 5 8 8 5 5 3 3 5 5 7 4 5 14 12 14 13 13 12 11 11 9 5 6 16 17 14 8 7 10 10 15 18 17
19 20 22 25 30 4 4 9 3 3 3 6 3 4 7 3 5 5 4 2 6 5 10 16 8 13 13 15 12 13 12 14 9 9 7 9 10 7 16 12 10 12 12 15 20
19 19 19 26 2 5 1 2 7 4 2 7 3 3 4 4 5 5 5 4 3 9 11 10 10 13 14 17 14 17 12 13 10 9 11 2 10 13 8 9 9 12 11 16 19
19 18 14 6 9 4 3 8 3 3 0 10 5 4 13 2 9 4 2 1 7 6 4 6 8 13 17 19 17 15 13 13 14 12 6 7 7 7 6 9 11 12 14 17 19
19 18 16 2 2 6 9 8 3 3 2 4 5 8 11 3 3 8 4 2 1 3 5 13 3 6 14 12 16 5 7 2 1 5 9 10 8 5 5 5 8 10 12 17 16
21 21 13 2 2 6 8 3 2 1 2 7 6 9 6 6 6 7 7 7 9 7 8 8 7 10 13 13 6 10 7 5 6 7 11 7 6 5 11 12 12 14 12 12 16
23 19 3 4 5 7 3 1 1 1 3 2 5 7 4 8 3 8 8 8 3 9 8 5 6 5 12 20 16 13 12 7 9 7 9 6 8 4 8 10 8 9 11 12 14
20 3 1 4 1 2 1 2 2 1 2 7 5 4 5 3 4 7 6 4 5 10 8 5 6 10 10 11 15 7 7 13 11 1 6 5 5 11 7 13 15 14 14 15 16
5 4 4 6 0 2 2 2 1 3 3 1 2 1 4 7 7 7 5 2 9 8 8 2 8 5 5 3 6 10 8 5 4 7 11 9 12 11 17 13 16 18 18 17 15
2 1 1 5 3 2 3 1 3 5 5 4 1 2 2 4 4 4 4 8 11 15 10 6 3 9 7 3 6 4 5 4 2 4 7 13 12 6 9 6 10 13 14 14 11
3 2 4 4 1 2 2 1 3 3 1 2 3 3 2 2 4 3 4 4 13 13 11 5 5 6 15 13 7 7 6 6 8 7 7 8 14 1 5 4 5 8 9 9 6
3 3 2 4 2 2 1 2 3 4 3 3 2 1 1 2 4 4 4 9 12 13 8 7 2 8 10 1 1 4 6 8 7 3 15 13 5 4 4 5 7 8 9 8 8
2 1 2 4 2 2 1 1 3 3 4 4 3 2 3 3 3 5 7 7 16 13 14 3 4 6 7 10 6 12 11 5 3 6 11 18 11 4 6 7 6 9 10 12 12
3 2 2 2 3 1 1 1 2 3 1 3 2 3 4 4 6 5 8 12 15 12 5 5 8 4 10 12 9 15 16 7 6 3 5 16 15 5 2 5 7 8 9 11 13
2 1 2 1 2 2 1 3 2 2 3 1 1 10 7 6 8 14 16 13 10 10 6 5 5 10 15 10 7 12 6 9 5 10 6 4 3 3 2 6 7 6 8 10 10
1 0 3 2 1 2 1 1 3 3 5 8 5 9 11 7 10 19 19 20 18 14 9 6 5 6 12 9 11 9 2 3 1 7 7 12 4 7 7 6 4 5 7 10 12
Wind_Direction
359 355 351 347 343 340 336 332 330 326 324 320 320 321 327 329 312 159 246 250 176 157 135 136 138 153 170 198 212 215 254 278 259 301 320 325 320 207 204 140 166 180 184 127 139
358 353 348 345 342 337 332 328 324 321 319 317 317 318 328 330 281 256 249 150 138 144 138 162 160 160 186 219 194 210 239 244 268 303 294 308 308 199 187 163 177 166 111 139 145
354 352 348 344 341 336 330 325 320 317 316 314 315 320 324 324 282 211 86 148 152 160 151 158 155 171 223 212 193 195 241 224 234 279 289 311 300 201 220 209 201 196 161 163 159
351 349 345 341 337 334 328 325 320 319 314 310 315 319 316 250 297 74 333 166 167 157 141 166 154 195 226 222 213 240 247 245 255 222 286 286 303 256 226 253 228 183 165 164 171
347 345 341 336 333 330 326 322 322 318 309 306 309 314 282 343 252 132 101 135 153 174 183 179 188 206 250 253 276 242 262 264 264 214 264 265 250 269 254 247 150 151 160 174 180
343 342 337 333 329 326 323 321 324 317 309 304 290 290 173 264 143 145 129 134 170 200 209 188 215 214 256 246 237 301 304 283 294 285 259 239 244 209 276 175 156 161 176 182 187
340 338 334 331 329 325 321 322 321 312 310 299 234 211 173 245 95 80 144 170 186 206 209 211 249 215 201 251 236 257 281 296 284 299 290 242 248 215 225 189 184 187 188 188 190
332 332 332 330 330 325 322 324 317 311 315 80 151 197 246 248 321 274 199 226 237 249 245 274 162 221 209 258 268 286 229 255 270 301 297 267 274 233 257 229 222 195 193 195 194
335 337 336 334 330 323 320 320 314 303 115 130 174 273 267 318 248 330 212 331 308 132 189 138 169 202 172 220 249 198 262 247 296 321 315 12 309 338 314 306 261 201 198 198 196
337 334 330 327 326 323 321 307 268 298 215 242 243 261 241 313 294 278 265 248 237 75 114 190 199 206 184 207 237 238 216 186 282 302 302 296 285 296 289 292 255 210 201 198 200
328 328 325 326 326 325 332 348 358 48 36 314 307 275 280 307 275 236 231 152 161 175 226 182 208 211 212 224 250 241 260 280 270 269 285 289 293 295 309 291 249 211 206 207 207
326 328 326 325 323 323 305 65 78 324 312 283 257 266 275 286 299 331 174 191 184 218 176 192 235 224 232 247 232 244 263 268 279 249 283 302 299 300 305 286 262 235 218 214 198
325 325 327 326 319 337 347 114 21 193 279 305 237 271 301 212 306 279 204 189 223 213 218 241 249 224 219 233 236 238 249 264 265 293 244 285 276 309 310 287 279 241 232 220 209
322 323 331 332 270 336 25 45 338 208 331 359 12 45 304 291 268 227 219 260 225 242 235 241 225 218 222 238 236 256 237 260 260 275 293 311 298 298 299 299 272 264 235 228 217
317 320 327 333 305 285 29 324 6 206 220 341 360 316 318 328 323 55 310 148 258 256 209 241 214 208 223 228 221 252 256 266 275 266 271 245 249 278 281 279 259 244 241 241 229
313 316 328 192 218 269 317 315 192 251 76 9 329 348 348 358 307 308 344 7 303 290 248 264 293 274 246 225 227 213 223 201 189 250 248 243 232 248 264 276 285 257 244 249 245
316 318 316 209 301 326 308 224 241 349 328 357 332 337 329 316 329 0 341 4 30 337 337 306 253 250 237 247 162 185 185 235 229 210 256 139 201 255 270 271 265 286 307 301 285
319 319 149 231 281 319 272 160 100 38 352 337 323 320 348 350 333 332 345 12 70 12 305 313 296 210 207 220 226 201 209 235 258 242 261 159 261 263 284 309 331 337 330 314 302
321 344 294 333 278 209 260 79 86 176 312 326 322 15 353 355 335 343 342 307 351 9 351 302 282 301 248 230 194 163 201 237 247 157 251 257 261 274 278 337 346 340 339 328 311
333 325 342 336 272 282 73 105 234 236 305 299 352 328 344 335 332 341 330 352 360 2 347 293 291 317 318 295 235 210 154 192 205 229 260 259 285 287 297 324 331 342 338 332 321
327 237 45 331 252 49 74 72 282 264 235 207 254 292 306 307 307 311 324 316 8 342 338 317 259 311 304 300 320 184 205 207 173 185 252 271 267 256 262 312 323 331 333 331 333
333 232 11 308 21 18 82 312 324 302 342 253 234 245 272 288 297 287 300 292 340 344 326 339 300 302 307 296 304 278 313 274 242 196 225 263 268 26 340 335 337 341 330 336 344
6 304 357 295 124 84 350 298 282 316 319 326 285 291 32 284 296 272 309 312 315 342 334 331 253 308 317 125 31 351 18 345 297 242 234 230 222 70 41 40 18 8 8 9 26
314 295 30 56 21 78 18 39 321 309 279 325 286 327 336 274 220 289 280 305 314 311 305 259 264 246 284 286 306 294 313 341 266 284 275 232 217 154 43 54 36 47 31 41 49
2 69 24 43 91 51 254 314 285 319 336 325 202 31 314 271 279 258 285 301 299 321 327 349 286 247 262 268 276 274 291 308 314 341 270 315 297 65 41 47 80 78 74 68 65
343 284 149 102 284 251 189 191 233 309 268 215 323 336 325 255 275 297 301 295 284 300 315 358 292 308 290 295 292 284 327 331 349 5 348 360 93 133 169 80 66 75 74 74 70
107 129 280 82 140 242 214 182 178 355 234 257 322 332 300 307 308 285 279 272 263 274 292 290 286 273 283 293 299 276 315 329 55 31 0 300 144 170 121 85 72 54 45 67 72